map of TGD home
Great Circle Mapper logo
TGD - Airport
Location
City:  Podgorica, Montenegro
Near (Alt.):Titograd
ICAO / IATA:LYPG / TGD

Details
Type:Airport (Aerodrome, Airfield)
Use:Public/Civil
Latitude:4221'34"N (42.359392)
Longitude:1915'07"E (19.251894)
Datum:WGS 1984
Elevation:141 ft (43 m)
Runways:2
Longest:8202 × 148 ft (2500 × 45 m), paved

Time
Time Zone:UTC+1 (DST+2)
Local Time:

Weather
METAR:LYPG 170300Z 36007KT 240V040 9999 SCT090 19/11 Q1014 NOSIG
TAF:LYPG 162300Z 1700/1724 36005KT 9999 SCT090 TX26/1713Z TN15/1704Z

Related Locations
Nearby:
Farthest:CHT: 11641 mi / 18734 km
Waitangi [Tuuta], Chatham Islands, NZ

Find:

   beyond  
but within

Other Information
Maps:
NOTAMs:
Links:
Sources:

  
flag of Montenegro
flag of Podgorica
  

Sectional Chart

Flight Planning
at skyvector.com

Satellite Image

Google Maps Satellite View

 

Copyright © 2004-2014 Karl L. Swartz. All rights reserved.
The Great Circle Mapper name and logo are trademarks of the Great Circle Mapper.
All other trademarks mentioned herein belong to their respective owners.
Please see credits for attibutions and further copyright information.

  Follow gcmap on Facebook Follow gcmap on Twitter

hCard Microformat

Geo Microformat